When you browse on this site, cookies collect data to enhance your experience and personalize the content and advertising you see.
Visit our Privacy Policy to learn more. By continuing to use the site, you agree to this use of cookies and data.
  • In Lithuania
  • List of Countries
  • For 7 days
  • Water Temperature
  • Satellite Maps
  • Weather Map
  • Weather Widgets
  • user-avatar
    Login

    Hourly Weather Maidstone

    Today, 21 April, Sunday

    Time Temperature Precipitation Wind Pressure Humidity
    00:00 +10°C° 0 mm 3 mps 767 mmHg 81%
    01:00 +9°C° 0 mm 3 mps 766 mmHg 83%
    02:00 +9°C° 0 mm 3 mps 766 mmHg 86%
    03:00 +9°C° 0 mm 2 mps 765 mmHg 88%
    04:00 +9°C° 0 mm 2 mps 765 mmHg 88%
    05:00 +10°C° 0 mm 2 mps 765 mmHg 88%
    06:00 +10°C° 0 mm 2 mps 765 mmHg 87%
    07:00 +13°C° 0 mm 2 mps 764 mmHg 81%
    08:00 +14°C° 0 mm 3 mps 764 mmHg 76%
    09:00 +17°C° 0 mm 3 mps 764 mmHg 70%
    10:00 +18°C° 0 mm 3 mps 763 mmHg 66%
    11:00 +19°C° 0 mm 3 mps 763 mmHg 62%
    12:00 +20°C° 0 mm 4 mps 763 mmHg 58%
    13:00 +20°C° 0 mm 4 mps 762 mmHg 57%
    14:00 +20°C° 0 mm 3 mps 761 mmHg 56%
    15:00 +19°C° 0 mm 3 mps 761 mmHg 55%
    16:00 +18°C° 0 mm 3 mps 760 mmHg 60%
    17:00 +17°C° 0 mm 3 mps 760 mmHg 65%
    18:00 +15°C° 0 mm 2 mps 760 mmHg 70%
    19:00 +14°C° 0 mm 2 mps 759 mmHg 69%
    20:00 +12°C° 0 mm 2 mps 759 mmHg 68%
    21:00 +10°C° 0 mm 2 mps 759 mmHg 67%
    22:00 +10°C° 0 mm 2 mps 759 mmHg 69%
    23:00 +10°C° 0 mm 2 mps 758 mmHg 71%

    Tomorrow, 22 April, Monday

    Time Temperature Precipitation Wind Pressure Humidity
    00:00 +10°C° 0 mm 2 mps 758 mmHg 73%
    01:00 +10°C° 0 mm 2 mps 757 mmHg 74%
    02:00 +10°C° 0 mm 2 mps 756 mmHg 76%
    03:00 +10°C° 0 mm 2 mps 756 mmHg 77%
    04:00 +10°C° 0 mm 2 mps 755 mmHg 78%
    05:00 +12°C° 0 mm 2 mps 755 mmHg 79%
    06:00 +12°C° 0 mm 2 mps 755 mmHg 81%
    07:00 +13°C° 0 mm 3 mps 754 mmHg 77%
    08:00 +16°C° 0 mm 3 mps 754 mmHg 73%
    09:00 +18°C° 0 mm 3 mps 754 mmHg 70%
    10:00 +19°C° 0 mm 4 mps 753 mmHg 66%
    11:00 +20°C° 0 mm 4 mps 753 mmHg 63%
    12:00 +20°C° 0 mm 5 mps 752 mmHg 59%
    13:00 +21°C° 0 mm 5 mps 752 mmHg 60%
    14:00 +21°C° 0 mm 4 mps 751 mmHg 61%
    15:00 +21°C° 0 mm 4 mps 751 mmHg 62%
    16:00 +20°C° 0 mm 4 mps 750 mmHg 66%
    17:00 +19°C° 0 mm 3 mps 750 mmHg 71%
    18:00 +18°C° 0 mm 3 mps 750 mmHg 75%
    19:00 +17°C° 0 mm 3 mps 750 mmHg 74%
    20:00 +16°C° 0 mm 2 mps 750 mmHg 72%
    21:00 +15°C° 0 mm 2 mps 750 mmHg 71%
    22:00 +14°C° 0 mm 2 mps 749 mmHg 72%
    23:00 +13°C° 0 mm 3 mps 749 mmHg 73%

    Day after tomorrow, 23 April, Tuesday

    Time Temperature Precipitation Wind Pressure Humidity
    00:00 +13°C° 0 mm 3 mps 749 mmHg 74%
    01:00 +12°C° 0 mm 3 mps 749 mmHg 76%
    02:00 +12°C° 0 mm 3 mps 748 mmHg 78%
    03:00 +11°C° 0 mm 3 mps 748 mmHg 79%
    04:00 +11°C° 0 mm 3 mps 748 mmHg 81%
    05:00 +11°C° 0 mm 3 mps 748 mmHg 83%
    06:00 +11°C° 0 mm 3 mps 748 mmHg 85%
    07:00 +13°C° 0 mm 3 mps 748 mmHg 81%
    08:00 +14°C° 0 mm 3 mps 748 mmHg 76%
    09:00 +17°C° 0 mm 4 mps 748 mmHg 72%
    10:00 +17°C° 0 mm 4 mps 748 mmHg 70%
    11:00 +18°C° 0 mm 4 mps 748 mmHg 67%
    12:00 +19°C° 0 mm 4 mps 748 mmHg 65%
    13:00 +19°C° 0 mm 4 mps 748 mmHg 65%
    14:00 +19°C° 0 mm 4 mps 747 mmHg 66%
    15:00 +17°C° 0 mm 5 mps 747 mmHg 67%
    16:00 +17°C° 0 mm 4 mps 747 mmHg 70%
    17:00 +15°C° 0 mm 4 mps 747 mmHg 73%
    18:00 +14°C° 0 mm 3 mps 747 mmHg 77%
    19:00 +13°C° 0 mm 3 mps 747 mmHg 79%
    20:00 +12°C° 0 mm 3 mps 747 mmHg 82%
    21:00 +11°C° 0 mm 3 mps 747 mmHg 85%
    22:00 +12°C° 0 mm 2 mps 747 mmHg 86%
    23:00 +10°C° 0 mm 2 mps 747 mmHg 86%

    24 April, Wednesday

    Time Temperature Precipitation Wind Pressure Humidity
    00:00 +10°C° 0 mm 2 mps 747 mmHg 87%
    01:00 +10°C° 0 mm 2 mps 747 mmHg 88%
    02:00 +11°C° 0 mm 1 mps 746 mmHg 88%
    03:00 +11°C° 0 mm 1 mps 746 mmHg 89%
    04:00 +11°C° 0 mm 1 mps 746 mmHg 88%
    05:00 +12°C° 0 mm 1 mps 746 mmHg 87%
    06:00 +13°C° 0 mm 1 mps 746 mmHg 86%
    07:00 +14°C° 0 mm 2 mps 746 mmHg 83%
    08:00 +16°C° 0 mm 3 mps 746 mmHg 80%
    09:00 +17°C° 0 mm 3 mps 746 mmHg 77%
    10:00 +18°C° 0.1 mm 4 mps 746 mmHg 76%
    11:00 +19°C° 0.1 mm 4 mps 746 mmHg 75%
    12:00 +20°C° 0.1 mm 5 mps 746 mmHg 74%
    13:00 +20°C° 0.1 mm 5 mps 746 mmHg 73%
    14:00 +20°C° 0.1 mm 5 mps 745 mmHg 72%
    15:00 +20°C° 0.1 mm 6 mps 745 mmHg 71%
    16:00 +19°C° 0.4 mm 6 mps 745 mmHg 75%
    17:00 +17°C° 0.4 mm 6 mps 745 mmHg 79%
    18:00 +16°C° 0.4 mm 7 mps 745 mmHg 83%
    19:00 +14°C° 0.2 mm 7 mps 745 mmHg 84%
    20:00 +11°C° 0.2 mm 7 mps 746 mmHg 85%
    21:00 +7°C° 0.2 mm 8 mps 747 mmHg 86%
    22:00 +8°C° 0 mm 7 mps 747 mmHg 87%
    23:00 +8°C° 0 mm 5 mps 748 mmHg 89%

    25 April, Thursday

    Time Temperature Precipitation Wind Pressure Humidity
    00:00 +7°C° 0 mm 4 mps 748 mmHg 91%
    01:00 +7°C° 0 mm 4 mps 748 mmHg 91%
    02:00 +7°C° 0 mm 4 mps 748 mmHg 92%
    03:00 +8°C° 0 mm 4 mps 748 mmHg 93%
    04:00 +8°C° 0 mm 5 mps 748 mmHg 92%
    05:00 +8°C° 0 mm 5 mps 748 mmHg 90%
    06:00 +8°C° 0 mm 6 mps 748 mmHg 89%
    07:00 +9°C° 0 mm 6 mps 748 mmHg 84%
    08:00 +11°C° 0 mm 6 mps 748 mmHg 79%
    09:00 +12°C° 0 mm 7 mps 748 mmHg 74%
    10:00 +12°C° 0.1 mm 8 mps 747 mmHg 73%
    11:00 +13°C° 0.1 mm 8 mps 747 mmHg 72%
    12:00 +15°C° 0.1 mm 9 mps 746 mmHg 70%
    13:00 +13°C° 0.3 mm 9 mps 746 mmHg 70%
    14:00 +13°C° 0.3 mm 8 mps 746 mmHg 70%
    15:00 +13°C° 0.3 mm 8 mps 746 mmHg 70%
    16:00 +12°C° 0.1 mm 8 mps 746 mmHg 71%
    17:00 +11°C° 0.1 mm 8 mps 746 mmHg 72%
    18:00 +11°C° 0.1 mm 8 mps 747 mmHg 74%
    19:00 +10°C° 0 mm 8 mps 747 mmHg 74%
    20:00 +9°C° 0 mm 8 mps 748 mmHg 74%
    21:00 +9°C° 0 mm 8 mps 748 mmHg 74%
    22:00 +9°C° 0 mm 8 mps 749 mmHg 73%
    23:00 +9°C° 0 mm 8 mps 749 mmHg 73%

    26 April, Friday

    Time Temperature Precipitation Wind Pressure Humidity
    00:00 +9°C° 0 mm 8 mps 750 mmHg 72%
    01:00 +8°C° 0 mm 7 mps 750 mmHg 73%
    02:00 +8°C° 0 mm 7 mps 750 mmHg 74%
    03:00 +8°C° 0 mm 6 mps 751 mmHg 74%
    04:00 +8°C° 0 mm 6 mps 751 mmHg 75%
    05:00 +8°C° 0 mm 6 mps 751 mmHg 76%
    06:00 +8°C° 0 mm 6 mps 752 mmHg 76%
    07:00 +9°C° 0 mm 7 mps 752 mmHg 73%
    08:00 +10°C° 0 mm 7 mps 753 mmHg 70%
    09:00 +11°C° 0 mm 8 mps 753 mmHg 67%
    10:00 +11°C° 0.1 mm 8 mps 754 mmHg 66%
    11:00 +12°C° 0.1 mm 8 mps 754 mmHg 66%
    12:00 +12°C° 0.1 mm 8 mps 755 mmHg 66%
    13:00 +14°C° 0.3 mm 7 mps 756 mmHg 63%
    14:00 +14°C° 0.3 mm 7 mps 756 mmHg 59%
    15:00 +15°C° 0.3 mm 7 mps 757 mmHg 55%
    16:00 +14°C° 0 mm 7 mps 757 mmHg 59%
    17:00 +13°C° 0 mm 6 mps 758 mmHg 62%
    18:00 +12°C° 0 mm 5 mps 758 mmHg 66%
    19:00 +10°C° 0 mm 5 mps 759 mmHg 69%
    20:00 +9°C° 0 mm 5 mps 760 mmHg 71%
    21:00 +7°C° 0 mm 4 mps 760 mmHg 74%
    22:00 +8°C° 0 mm 5 mps 760 mmHg 74%
    23:00 +8°C° 0 mm 5 mps 760 mmHg 74%
    Show more